Regional Weather Roundup
Issued by NWS

Home | Current Version | Previous Version | Text Only | Print | Product List | Glossary Off
Versions: 1 2 3 4 5 6 7 8 9 10 11 12 13 14 15 16 17 18 19 20 21 22 23 24 25 26 27 28 29 30 31 32 33 34 35 36 37 38 39 40 41 42 43 44 45 46 47 48 49 50

000
ASUS45 KCYS 040010
RWRWY

WYOMING REGIONAL WEATHER ROUNDUP
NATIONAL WEATHER SERVICE CHEYENNE WY
600 PM MDT THU SEP 03 2015

NOTE:  "FAIR" INDICATES FEW OR NO CLOUDS BELOW 12,000 FEET
WITH NO SIGNIFICANT WEATHER AND/OR OBSTRUCTIONS TO VISIBILITY.

WYZ001-040100-
YELLOWSTONE NATIONAL PARK

CITY           SKY/WX    TMP DP  RH WIND       PRES   REMARKS
LK YELLOWSTONE   N/A     66  34  30 SW6       30.03S
6HR MIN TEMP:  66; 6HR MAX TEMP:  70;

W YELLOWSTONE  NOT AVBL

$$
WYZ002>013-054>058-071-098>099-040100-
NORTHERN WYOMING

CITY           SKY/WX    TMP DP  RH WIND       PRES   REMARKS
JACKSON        FAIR      73  34  23 SW15G21   29.91S
CODY           PTSUNNY   72  39  30 N8G21     29.84R
GREYBULL       FAIR      86  38  18 S6        29.71S
6HR MIN TEMP:  78; 6HR MAX TEMP:  87;

WORLAND        FAIR      85  39  19 S9        29.73F
6HR MIN TEMP:  79; 6HR MAX TEMP:  87;

SHERIDAN       FAIR      82  40  22 W10       29.75S
6HR MIN TEMP:  73; 6HR MAX TEMP:  87;

BUFFALO        FAIR      87  34  15 VRB6      29.81F
6HR MIN TEMP:  76; 6HR MAX TEMP:  94;

GILLETTE       FAIR      88  39  17 S12       29.76F
6HR MIN TEMP:  81; 6HR MAX TEMP:  93;

HULETT         FAIR      84  48  28 SE9       29.81S
NEWCASTLE      FAIR      86  34  15 E8        29.80S

$$
WYZ014>020-022>026-101>103-040100-
CENTRAL WYOMING

CITY           SKY/WX    TMP DP  RH WIND       PRES   REMARKS
BIG PINEY      FAIR      78  31  17 SW20G28   29.98S
6HR MIN TEMP:  74; 6HR MAX TEMP:  82;

PINEDALE       FAIR      75  28  17 S12G23    29.98F
DUBOIS         FAIR      70  32  24 NW12G20   29.95F
LANDER         FAIR      84  28  13 S13       29.84F
6HR MIN TEMP:  80; 6HR MAX TEMP:  87;

RIVERTON       FAIR      82  30  15 S16       29.85F
6HR MIN TEMP:  77; 6HR MAX TEMP:  85;

CASPER         FAIR      83  32  16 SW22G29   29.87S
6HR MIN TEMP:  82; 6HR MAX TEMP:  88;

DOUGLAS        CLOUDY    77  45  32 NW22G32   29.91R
6HR MIN TEMP:  68; 6HR MAX TEMP:  93; 6HR PCP:  0.02;


$$
WYZ021-027>030-104>119-040100-
SOUTHERN WYOMING

CITY           SKY/WX    TMP DP  RH WIND       PRES   REMARKS
EVANSTON       FAIR      77  24  14 SW28G33   29.99F
6HR MIN TEMP:  72; 6HR MAX TEMP:  79;

KEMMERER       FAIR      75  28  17 SW14G23   30.01F
FORT BRIDGER   CLEAR     81  27  13 W18G25    30.00F
ROCK SPRINGS   FAIR      77  31  18 SW10G20   29.98F
6HR MIN TEMP:  74; 6HR MAX TEMP:  79;

DIXON          FAIR      70  44  37 E15       30.08F
RAWLINS        FAIR      71  40  32 S15       30.04S
6HR MIN TEMP:  71; 6HR MAX TEMP:  80;

SARATOGA       MOCLDY    59  46  63 SE17G28   30.11F
LARAMIE        LGT RAIN  55  50  84 SW7       30.18R
6HR MIN TEMP:  55; 6HR MAX TEMP:  79; 6HR PCP:  0.02;

CHEYENNE       CLOUDY    71  45  39 SW21      30.04R
6HR MIN TEMP:  70; 6HR MAX TEMP:  84; 6HR PCP: TRACE;

TORRINGTON     FAIR      81  47  30 S12       29.87R
6HR MIN TEMP:  81; 6HR MAX TEMP:  95;

PINE BLUFFS    CLOUDY    77  43  29 S6        29.96S

$$


USA.gov is the U.S. government's official web portal to all federal, state and local government web resources and services.